H1 CPF 2 NER 2025 12 17 9 351 01 glonass131 H2 1301901 9131 39155 2025 12 17 0 0 0 2025 12 20 23 45 0 900 1 1 0 0 0 1 H9 10 0 61026 0.00000 0 -13304562.920 10294591.681 19190684.094 10 0 61026 900.00000 0 -15506672.366 10719919.163 17189788.378 10 0 61026 1800.00000 0 -17411065.377 11252872.683 14855172.652 10 0 61026 2700.00000 0 -18977716.750 11843399.881 12231871.109 10 0 61026 3600.00000 0 -20178588.005 12436082.755 9370627.496 10 0 61026 4500.00000 0 -20998624.636 12972623.269 6326926.267 10 0 61026 5400.00000 0 -21436222.376 13394473.975 3159921.813 10 0 61026 6300.00000 0 -21503140.458 13645501.780 -68714.048 10 0 61026 7200.00000 0 -21223863.310 13674570.423 -3296003.544 10 0 61026 8100.00000 0 -20634436.014 13437929.603 -6458908.602 10 0 61026 9000.00000 0 -19780821.899 12901306.255 -9495584.555 10 0 61026 9900.00000 0 -18716851.831 12041605.682 -12346614.896 10 0 61026 10800.00000 0 -17501853.015 10848146.930 -14956200.294 10 0 61026 11700.00000 0 -16198059.455 9323376.899 -17273275.857 10 0 61026 12600.00000 0 -14867916.036 7483030.479 -19252532.261 10 0 61026 13500.00000 0 -13571392.825 5355728.292 -20855318.666 10 0 61026 14400.00000 0 -12363425.580 2982028.235 -22050408.306 10 0 61026 15300.00000 0 -11291592.617 412970.891 -22814610.921 10 0 61026 16200.00000 0 -10394127.357 -2291819.216 -23133219.989 10 0 61026 17100.00000 0 -9698350.759 -5066395.554 -23000286.598 10 0 61026 18000.00000 0 -9219589.130 -7841018.411 -22418715.747 10 0 61026 18900.00000 0 -8960621.325 -10544843.405 -21400184.837 10 0 61026 19800.00000 0 -8911676.283 -13108656.284 -19964887.881 10 0 61026 20700.00000 0 -9050978.048 -15467539.376 -18141112.527 10 0 61026 21600.00000 0 -9345812.087 -17563358.694 -15964660.316 10 0 61026 22500.00000 0 -9754064.740 -19346969.134 -13478123.469 10 0 61026 23400.00000 0 -10226167.983 -20780047.634 -10730034.191 10 0 61026 24300.00000 0 -10707365.129 -21836480.510 -7773904.560 10 0 61026 25200.00000 0 -11140200.275 -22503250.215 -4667176.819 10 0 61026 26100.00000 0 -11467125.684 -22780787.962 -1470105.247 10 0 61026 27000.00000 0 -11633117.165 -22682780.872 1755408.452 10 0 61026 27900.00000 0 -11588187.971 -22235445.006 4947003.939 10 0 61026 28800.00000 0 -11289696.692 -21476297.238 8043052.929 10 0 61026 29700.00000 0 -10704353.680 -20452479.186 10983829.940 10 0 61026 30600.00000 0 -9809843.452 -19218704.269 13712642.234 10 0 61026 31500.00000 0 -8595996.446 -17834913.631 16176898.985 10 0 61026 32400.00000 0 -7065462.075 -16363738.029 18329101.348 10 0 61026 33300.00000 0 -5233855.211 -14867870.067 20127736.587 10 0 61026 34200.00000 0 -3129369.433 -13407454.297 21538061.155 10 0 61026 35100.00000 0 -791871.669 -12037601.700 22532759.498 10 0 61026 36000.00000 0 1728486.560 -10806129.819 23092467.225 10 0 61026 36900.00000 0 4373086.622 -9751620.899 23206149.314 10 0 61026 37800.00000 0 7077017.157 -8901877.706 22871326.090 10 0 61026 38700.00000 0 9771518.890 -8272840.933 22094141.862 10 0 61026 39600.00000 0 12386602.043 -7868013.816 20889273.401 10 0 61026 40500.00000 0 14853730.813 -7678419.223 19279677.882 10 0 61026 41400.00000 0 17108465.740 -7683092.947 17296182.495 10 0 61026 42300.00000 0 19092955.380 -7850094.923 14976920.778 10 0 61026 43200.00000 0 20758173.724 -8137998.393 12366623.640 10 0 61026 44100.00000 0 22065809.217 -8497796.665 9515776.118 10 0 61026 45000.00000 0 22989724.621 -8875148.833 6479654.046 10 0 61026 45900.00000 0 23516924.210 -9212870.544 3317257.896 10 0 61026 46800.00000 0 23647985.032 -9453564.378 90163.802 10 0 61026 47700.00000 0 23396931.492 -9542277.289 -3138685.524 10 0 61026 48600.00000 0 22790556.348 -9429070.325 -6306225.365 10 0 61026 49500.00000 0 21867215.310 -9071388.712 -9350522.909 10 0 61026 50400.00000 0 20675145.564 -8436128.281 -12212013.598 10 0 61026 51300.00000 0 19270379.637 -7501307.056 -14834693.050 10 0 61026 52200.00000 0 17714344.059 -6257267.686 -17167238.510 10 0 61026 53100.00000 0 16071246.258 -4707356.947 -19164035.311 10 0 61026 54000.00000 0 14405362.447 -2868051.406 -20786086.160 10 0 61026 54900.00000 0 12778343.430 -768522.642 -22001783.927 10 0 61026 55800.00000 0 11246654.180 1550339.990 -22787531.961 10 0 61026 56700.00000 0 9859256.638 4037407.534 -23128199.681 10 0 61026 57600.00000 0 8655634.084 6633227.388 -23017405.081 10 0 61026 58500.00000 0 7664239.994 9272295.242 -22457619.764 10 0 61026 59400.00000 0 6901435.355 11885586.308 -21460096.077 10 0 61026 60300.00000 0 6370956.970 14403238.640 -20044619.677 10 0 61026 61200.00000 0 6063936.175 16757275.450 -18239094.494 10 0 61026 62100.00000 0 5959463.758 18884252.454 -16078970.317 10 0 61026 63000.00000 0 6025673.691 20727720.230 -13606526.217 10 0 61026 63900.00000 0 6221296.585 22240400.013 -10870025.620 10 0 61026 64800.00000 0 6497614.349 23385984.169 -7922761.064 10 0 61026 65700.00000 0 6800731.276 24140488.790 -4822008.354 10 0 61026 66600.00000 0 7074064.226 24493104.962 -1627911.254 10 0 61026 67500.00000 0 7260946.210 24446516.390 1597681.388 10 0 61026 68400.00000 0 7307233.763 24016673.219 4792403.776 10 0 61026 69300.00000 0 7163809.116 23232034.151 7894564.225 10 0 61026 70200.00000 0 6788873.254 22132310.811 10844317.406 10 0 61026 71100.00000 0 6149935.075 20766767.895 13584796.721 10 0 61026 72000.00000 0 5225414.666 19192150.409 16063186.861 10 0 61026 72900.00000 0 4005794.814 17470324.105 18231718.138 10 0 61026 73800.00000 0 2494273.201 15665725.978 20048565.650 10 0 61026 74700.00000 0 706887.945 13842729.175 21478638.093 10 0 61026 75600.00000 0 -1327889.735 12063029.561 22494242.884 10 0 61026 76500.00000 0 -3570080.751 10383160.213 23075616.162 10 0 61026 77400.00000 0 -5969605.503 8852234.963 23211308.245 10 0 61026 78300.00000 0 -8468118.271 7510013.049 22898417.140 10 0 61026 79200.00000 0 -11001196.216 6385364.314 22142664.953 10 0 61026 80100.00000 0 -13500795.796 5495198.579 20958314.218 10 0 61026 81000.00000 0 -15897878.019 4843904.399 19367923.673 10 0 61026 81900.00000 0 -18125096.170 4423321.960 17401945.580 10 0 61026 82800.00000 0 -20119435.989 4213253.172 15098169.464 10 0 61026 83700.00000 0 -21824699.051 4182489.791 12501020.123 10 0 61026 84600.00000 0 -23193725.311 4290318.599 9660720.762 10 0 61026 85500.00000 0 -24190260.430 4488442.139 6632335.297 10 0 61027 0.00000 0 -24790387.385 4723235.171 3474707.175 10 0 61027 900.00000 0 -24983459.731 4938241.978 249312.897 10 0 61027 1800.00000 0 -24772493.630 5076807.779 -2980942.926 10 0 61027 2700.00000 0 -24174000.515 5084731.552 -6152972.116 10 0 61027 3600.00000 0 -23217264.407 4912824.832 -9204756.746 10 0 61027 4500.00000 0 -21943093.461 4519264.876 -12076587.032 10 0 61027 5400.00000 0 -20402098.027 3871638.813 -14712256.107 10 0 61027 6300.00000 0 -18652568.546 2948588.563 -17060185.583 10 0 61027 7200.00000 0 -16758044.303 1740983.691 -19074457.289 10 0 61027 8100.00000 0 -14784677.691 252570.010 -20715728.829 10 0 61027 9000.00000 0 -12798507.372 -1499935.216 -21952013.540 10 0 61027 9900.00000 0 -10862757.500 -3487306.300 -22759308.657 10 0 61027 10800.00000 0 -9035278.457 -5668810.840 -23122059.263 10 0 61027 11700.00000 0 -7366237.819 -7993707.242 -23033449.462 10 0 61027 12600.00000 0 -5896158.770 -10403173.809 -22495516.199 10 0 61027 13500.00000 0 -4654387.513 -12832586.960 -21519085.086 10 0 61027 14400.00000 0 -3658052.151 -15214051.562 -20123531.408 10 0 61027 15300.00000 0 -2911554.046 -17479076.202 -18336373.082 10 0 61027 16200.00000 0 -2406609.606 -19561280.704 -16192705.665 10 0 61027 17100.00000 0 -2122836.935 -21399022.619 -13734492.464 10 0 61027 18000.00000 0 -2028858.849 -22937833.519 -11009725.482 10 0 61027 18900.00000 0 -2083872.226 -24132564.677 -8071475.091 10 0 61027 19800.00000 0 -2239614.529 -24949154.547 -4976848.113 10 0 61027 20700.00000 0 -2442642.366 -25365946.708 -1785875.354 10 0 61027 21600.00000 0 -2636824.591 -25374506.109 1439649.502 10 0 61027 22500.00000 0 -2765944.379 -24979902.365 4637357.367 10 0 61027 23400.00000 0 -2776300.957 -24200451.004 7745495.242 10 0 61027 24300.00000 0 -2619202.455 -23066925.689 10704099.908 10 0 61027 25200.00000 0 -2253246.487 -21621275.720 13456132.729 10 0 61027 26100.00000 0 -1646294.277 -19914903.109 15948555.637 10 0 61027 27000.00000 0 -777056.983 -18006570.622 18133329.671 10 0 61027 27900.00000 0 363771.185 -15960026.909 19968319.126 10 0 61027 28800.00000 0 1772879.961 -13841445.810 21418086.072 10 0 61027 29700.00000 0 3434237.070 -11716783.797 22454561.769 10 0 61027 30600.00000 0 5319515.112 -9649162.755 23057583.497 10 0 61027 31500.00000 0 7389035.720 -7696384.261 23215287.230 10 0 61027 32400.00000 0 9593194.806 -5908676.262 22924348.723 10 0 61027 33300.00000 0 11874313.140 -4326764.127 22190067.679 10 0 61027 34200.00000 0 14168839.097 -2980345.317 21026291.949 10 0 61027 35100.00000 0 16409815.580 -1887031.096 19455181.160 10 0 61027 36000.00000 0 18529511.625 -1051800.110 17506811.722 10 0 61027 36900.00000 0 20462111.365 -466988.113 15218627.966 10 0 61027 37800.00000 0 22146349.502 -112816.171 12634747.106 10 0 61027 38700.00000 0 23527983.358 41562.722 9805128.727 10 0 61027 39600.00000 0 24561997.009 36540.678 6784622.697 10 0 61027 40500.00000 0 25214443.171 -79881.721 3631912.403 10 0 61027 41400.00000 0 25463842.746 -254364.676 408373.080 10 0 61027 42300.00000 0 25302080.072 -430734.915 -2823132.326 10 0 61027 43200.00000 0 24734753.095 -552620.600 -5999495.319 10 0 61027 44100.00000 0 23780960.942 -566101.610 -9058616.021 10 0 61027 45000.00000 0 22472535.875 -422259.904 -11940642.486 10 0 61027 45900.00000 0 20852750.873 -79518.448 -14589168.220 10 0 61027 46800.00000 0 18974557.254 494334.027 -16952361.806 10 0 61027 47700.00000 0 16898427.484 1320521.526 -18984003.846 10 0 61027 48600.00000 0 14689895.676 2408134.062 -20644408.807 10 0 61027 49500.00000 0 12416901.384 3753506.275 -21901212.128 10 0 61027 50400.00000 0 10147050.684 5340148.862 -22730006.231 10 0 61027 51300.00000 0 7944911.623 7139236.017 -23114812.812 10 0 61027 52200.00000 0 5869459.029 9110627.889 -23048382.666 10 0 61027 53100.00000 0 3971776.544 11204383.855 -22532318.252 10 0 61027 54000.00000 0 2293111.878 13362701.497 -21577018.195 10 0 61027 54900.00000 0 863365.399 15522198.215 -20201446.714 10 0 61027 55800.00000 0 -299926.916 17616438.202 -18432734.582 10 0 61027 56700.00000 0 -1192076.753 19578597.698 -16305621.557 10 0 61027 57600.00000 0 -1821176.413 21344156.265 -13861753.223 10 0 61027 58500.00000 0 -2207488.322 22853501.437 -11148847.825 10 0 61027 59400.00000 0 -2382320.699 24054338.498 -8219750.916 10 0 61027 60300.00000 0 -2386440.300 24903806.035 -5131397.413 10 0 61027 61200.00000 0 -2268091.978 25370210.792 -1943702.055 10 0 61027 62100.00000 0 -2080710.628 25434311.734 1281599.878 10 0 61027 63000.00000 0 -1880423.036 25090102.206 4482139.270 10 0 61027 63900.00000 0 -1723445.202 24345060.144 7596105.018 10 0 61027 64800.00000 0 -1663484.095 23219858.061 10563419.087 10 0 61027 65700.00000 0 -1749251.986 21747546.538 13326873.726 10 0 61027 66600.00000 0 -2022196.233 19972246.161 15833210.761 10 0 61027 67500.00000 0 -2514538.213 17947402.345 18034124.326 10 0 61027 68400.00000 0 -3247702.148 15733674.925 19887170.019 10 0 61027 69300.00000 0 -4231198.717 13396548.535 21356565.078 10 0 61027 70200.00000 0 -5462009.909 11003760.786 22413866.074 10 0 61027 71100.00000 0 -6924501.536 8622652.264 23038512.542 10 0 61027 72000.00000 0 -8590868.690 6317545.419 23218226.855 10 0 61027 72900.00000 0 -10422098.102 4147258.451 22949262.818 10 0 61027 73800.00000 0 -12369410.521 2162855.139 22236497.567 10 0 61027 74700.00000 0 -14376126.640 405722.522 21093363.600 10 0 61027 75600.00000 0 -16379882.555 -1093944.388 19541620.226 10 0 61027 76500.00000 0 -18315105.827 -2318187.636 17610966.270 10 0 61027 77400.00000 0 -20115651.594 -3261816.541 15338498.624 10 0 61027 78300.00000 0 -21717490.505 -3932399.407 12768024.219 10 0 61027 79200.00000 0 -23061336.755 -4349715.136 9949235.943 10 0 61027 80100.00000 0 -24095105.661 -4544685.762 6936766.254 10 0 61027 81000.00000 0 -24776096.081 -4557833.158 3789135.216 10 0 61027 81900.00000 0 -25072803.478 -4437323.859 567612.602 10 0 61027 82800.00000 0 -24966284.192 -4236684.306 -2664983.665 10 0 61027 83700.00000 0 -24451010.117 -4012283.844 -5845528.337 10 0 61027 84600.00000 0 -23535174.540 -3820693.715 -8911843.027 10 0 61027 85500.00000 0 -22240433.553 -3716036.434 -11803936.869 10 0 61028 0.00000 0 -20601092.263 -3747441.046 -14465206.522 10 0 61028 900.00000 0 -18662768.254 -3956715.575 -16843570.676 10 0 61028 1800.00000 0 -16480591.018 -4376338.610 -18892510.690 10 0 61028 2700.00000 0 -14117011.272 -5027858.121 -20571999.609 10 0 61028 3600.00000 0 -11639316.103 -5920767.638 -21849296.082 10 0 61028 4500.00000 0 -9116955.606 -7051908.799 -22699588.179 10 0 61028 5400.00000 0 -6618795.392 -8405426.132 -23106474.016 10 0 61028 6300.00000 0 -4210411.891 -9953275.733 -23062270.253 10 0 61028 7200.00000 0 -1951544.821 -11656265.407 -22568143.479 10 0 61028 8100.00000 0 106186.334 -13465580.965 -21634063.473 10 0 61028 9000.00000 0 1921207.122 -15324732.695 -20278581.143 10 0 61028 9900.00000 0 3463475.447 -17171838.372 -18528437.579 10 0 61028 10800.00000 0 4715471.968 -18942145.352 -16418013.993 10 0 61028 11700.00000 0 5672655.625 -20570684.797 -13988635.362 10 0 61028 12600.00000 0 6343369.148 -21994946.143 -11287743.221 10 0 61028 13500.00000 0 6748202.675 -23157459.842 -8367955.350 10 0 61028 14400.00000 0 6918846.162 -24008181.029 -5286031.855 10 0 61028 15300.00000 0 6896482.324 -24506575.747 -2101768.590 10 0 61028 16200.00000 0 6729790.403 -24623324.297 1123160.224 10 0 61028 17100.00000 0 6472646.715 -24341572.819 4326387.951 10 0 61028 18000.00000 0 6181619.609 -23657683.075 7446047.694 10 0 61028 18900.00000 0 5913364.236 -22581451.188 10421948.709 10 0 61028 19800.00000 0 5722025.889 -21135788.034 13196716.003 10 0 61028 20700.00000 0 5656759.636 -19355875.497 15716872.923 10 0 61028 21600.00000 0 5759468.695 -17287834.045 17933848.067 10 0 61028 22500.00000 0 6062854.709 -14986956.464 19804889.407 10 0 61028 23400.00000 0 6588860.214 -12515579.668 21293870.124 10 0 61028 24300.00000 0 7347567.645 -9940680.791 22371972.589 10 0 61028 25200.00000 0 8336600.900 -7331294.455 23018238.776 10 0 61028 26100.00000 0 9541055.366 -4755855.334 23219977.349 10 0 61028 27000.00000 0 10933961.159 -2279573.185 22973019.806 10 0 61028 27900.00000 0 12477262.938 38053.516 22281820.128 10 0 61028 28800.00000 0 14123278.656 2145484.251 21159394.676 10 0 61028 29700.00000 0 15816579.956 4001051.452 19627101.481 10 0 61028 30600.00000 0 17496219.229 5574464.640 17714260.647 10 0 61028 31500.00000 0 19098213.350 6847840.560 15457620.323 10 0 61028 32400.00000 0 20558182.479 7816215.143 12900675.661 10 0 61028 33300.00000 0 21814034.744 8487514.129 10092851.139 10 0 61028 34200.00000 0 22808584.251 8881981.601 7088559.853 10 0 61028 35100.00000 0 23491991.397 9031088.555 3946156.354 10 0 61028 36000.00000 0 23823920.725 8975966.006 726802.521 10 0 61028 36900.00000 0 23775322.436 8765427.972 -2506731.351 10 0 61028 37800.00000 0 23329759.091 8453668.002 -5691305.991 10 0 61028 38700.00000 0 22484217.997 8097727.792 -8764667.249 10 0 61028 39600.00000 0 21249371.808 7754847.101 -11666688.025 10 0 61028 40500.00000 0 19649273.789 7479809.960 -14340571.107 10 0 61028 41400.00000 0 17720498.923 7322402.813 -16733986.644 10 0 61028 42300.00000 0 15510766.377 7325095.602 -18800119.331 10 0 61028 43200.00000 0 13077101.669 7521047.064 -20498602.608 10 0 61028 44100.00000 0 10483616.909 7932521.241 -21796319.921 10 0 61028 45000.00000 0 7799004.108 8569783.935 -22668056.329 10 0 61028 45900.00000 0 5093848.633 9430526.639 -23096987.449 10 0 61028 46800.00000 0 2437877.206 10499842.239 -23074996.601 10 0 61028 47700.00000 0 -102742.955 11750752.639 -22602814.960 10 0 61028 48600.00000 0 -2467940.215 13145264.557 -21689983.525 10 0 61028 49500.00000 0 -4606004.081 14635907.099 -20354639.531 10 0 61028 50400.00000 0 -6475486.777 16167684.286 -18623133.578 10 0 61028 51300.00000 0 -8046663.586 17680358.436 -16529487.088 10 0 61028 52200.00000 0 -9302493.985 19110966.788 -14114702.773 10 0 61028 53100.00000 0 -10239047.065 20396464.489 -11425943.443 10 0 61028 54000.00000 0 -10865377.497 21476382.523 -8515596.780 10 0 61028 54900.00000 0 -11202861.361 22295389.257 -5440245.510 10 0 61028 55800.00000 0 -11284023.528 22805649.045 -2259563.859 10 0 61028 56700.00000 0 -11150909.108 22968880.516 964837.910 10 0 61028 57600.00000 0 -10853069.859 22758030.181 4170598.613 10 0 61028 58500.00000 0 -10445251.717 22158493.340 7295798.525 10 0 61028 59400.00000 0 -9984881.305 21168833.418 10280137.145 10 0 61028 60300.00000 0 -9529456.625 19800971.265 13066075.110 10 0 61028 61200.00000 0 -9133950.387 18079837.599 15599920.038 10 0 61028 62100.00000 0 -8848333.477 16042503.712 17832837.594 10 0 61028 63000.00000 0 -8715320.453 13736826.030 19721770.529 10 0 61028 63900.00000 0 -8768429.858 11219659.724 21230250.129 10 0 61028 64800.00000 0 -9030439.093 8554713.480 22329086.451 10 0 61028 65700.00000 0 -9512297.786 5810131.618 22996925.466 10 0 61028 66600.00000 0 -10212545.166 3055900.697 23220663.339 10 0 61028 67500.00000 0 -11117256.834 361184.856 22995710.049 10 0 61028 68400.00000 0 -12200525.121 -2208302.795 22326096.752 10 0 61028 69300.00000 0 -13425455.675 -4592786.263 21224423.500 10 0 61028 70200.00000 0 -14745641.838 -6740668.980 19711646.348 10 0 61028 71100.00000 0 -16107058.617 -8610440.152 17816705.442 10 0 61028 72000.00000 0 -17450300.167 -10172165.836 15575998.427 10 0 61028 72900.00000 0 -18713069.720 -11408501.795 13032706.416 10 0 61028 73800.00000 0 -19832819.343 -12315184.293 10235982.796 10 0 61028 74700.00000 0 -20749429.290 -12900976.324 7240018.261 10 0 61028 75600.00000 0 -21407813.818 -13187069.508 4102998.520 10 0 61028 76500.00000 0 -21760342.035 -13205964.988 885974.045 10 0 61028 77400.00000 0 -21768969.122 -12999879.241 -2348336.137 10 0 61028 78300.00000 0 -21406984.678 -12618741.648 -5536782.415 10 0 61028 79200.00000 0 -20660300.727 -12117868.931 -8617038.548 10 0 61028 80100.00000 0 -19528221.462 -11555416.299 -11528844.785 10 0 61028 81000.00000 0 -18023659.092 -10989715.467 -14215213.237 10 0 61028 81900.00000 0 -16172784.320 -10476615.132 -16623569.143 10 0 61028 82800.00000 0 -14014124.768 -10066939.682 -18706803.062 10 0 61028 83700.00000 0 -11597148.900 -9804176.794 -20424211.123 10 0 61028 84600.00000 0 -8980395.485 -9722494.459 -21742303.272 10 0 61028 85500.00000 0 -6229228.441 -9845173.276 -22635462.596 10 0 61029 0.00000 0 -3413313.147 -10183521.381 -23086442.547 10 0 61029 900.00000 0 -603920.252 -10736318.223 -23086692.868 10 0 61029 1800.00000 0 2128824.862 -11489809.462 -22636508.319 10 0 61029 2700.00000 0 4718635.898 -12418252.285 -21744999.645 10 0 61029 3600.00000 0 7105586.211 -13484985.731 -20429888.498 10 0 61029 4500.00000 0 9238352.943 -14643978.691 -18717132.699 10 0 61029 5400.00000 0 11076092.355 -15841788.010 -16640391.312 10 0 61029 6300.00000 0 12589870.567 -17019842.120 -14240341.967 10 0 61029 7200.00000 0 13763593.122 -18116952.409 -11563865.733 10 0 61029 8100.00000 0 14594398.338 -19071945.623 -8663117.033 10 0 61029 9000.00000 0 15092502.003 -19826306.261 -5594497.947 10 0 61029 9900.00000 0 15280503.882 -20326718.264 -2417557.767 10 0 61029 10800.00000 0 15192188.710 -20527400.244 806160.457 10 0 61029 11700.00000 0 14870874.890 -20392137.774 4014304.114 10 0 61029 12600.00000 0 14367382.335 -19895929.330 7144903.613 10 0 61029 13500.00000 0 13737705.904 -19026178.890 10137551.367 10 0 61029 14400.00000 0 13040492.239 -17783386.962 12934545.960 10 0 61029 15300.00000 0 12334425.187 -16181312.492 15481981.243 10 0 61029 16200.00000 0 11675628.019 -14246599.459 17730761.514 10 0 61029 17100.00000 0 11115189.466 -12017883.503 19637525.449 10 0 61029 18000.00000 0 10696915.246 -9544414.873 21165463.213 10 0 61029 18900.00000 0 10455397.275 -6884252.868 22285012.909 10 0 61029 19800.00000 0 10414479.967 -4102104.112 22974424.516 10 0 61029 20700.00000 0 10586187.064 -1266891.189 23220181.360 10 0 61029 21600.00000 0 10970154.053 1550851.087 23017271.266 10 0 61029 22500.00000 0 11553591.037 4281647.235 22369301.671 10 0 61029 23400.00000 0 12311779.608 6859712.726 21288455.194 10 0 61029 24300.00000 0 13209085.624 9225438.898 19795284.602 10 0 61029 25200.00000 0 14200448.608 11327629.515 17918348.608 10 0 61029 26100.00000 0 15233288.489 13125396.473 15693692.718 10 0 61029 27000.00000 0 16249752.581 14589635.304 13164182.231 10 0 61029 27900.00000 0 17189210.584 15704017.656 10378697.492 10 0 61029 28800.00000 0 17990893.908 16465457.340 7391204.676 10 0 61029 29700.00000 0 18596568.256 16884028.291 4259718.381 10 0 61029 30600.00000 0 18953125.741 16982335.761 1045175.244 10 0 61029 31500.00000 0 19014984.915 16794365.503 -2189759.504 10 0 61029 32400.00000 0 18746194.359 16363858.438 -5381928.488 10 0 61029 33300.00000 0 18122147.314 15742279.249 -8468935.912 10 0 61029 34200.00000 0 17130831.198 14986465.614 -11390391.806 10 0 61029 35100.00000 0 15773555.662 14156059.167 -14089119.855 10 0 61029 36000.00000 0 14065125.497 13310829.368 -16512302.436 10 0 61029 36900.00000 0 12033448.995 12508006.377 -18612537.782 10 0 61029 37800.00000 0 9718597.093 11799738.769 -20348786.304 10 0 61029 38700.00000 0 7171352.720 11230786.362 -21687185.813 10 0 61029 39600.00000 0 4451312.006 10836547.848 -22601718.597 10 0 61029 40500.00000 0 1624618.321 10641507.943 -23074716.936 10 0 61029 41400.00000 0 -1238574.239 10658170.022 -23097197.528 10 0 61029 42300.00000 0 -4066800.112 10886518.786 -22669019.243 10 0 61029 43200.00000 0 -6790030.070 11314034.150 -21798862.617 10 0 61029 44100.00000 0 -9342352.056 11916253.692 -20504033.346 10 0 61029 45000.00000 0 -11664473.124 12657857.352 -18810095.701 10 0 61029 45900.00000 0 -13705939.006 13494225.932 -16750345.187 10 0 61029 46800.00000 0 -15426980.535 14373405.122 -14365132.795 10 0 61029 47700.00000 0 -16799912.447 15238390.008 -11701055.998 10 0 61029 48600.00000 0 -17810029.518 16029632.178 -8810033.858 10 0 61029 49500.00000 0 -18455966.292 16687662.847 -5748285.539 10 0 61029 50400.00000 0 -18749509.229 17155721.342 -2575233.005 10 0 61029 51300.00000 0 -18714872.862 17382278.861 647650.402 10 0 61029 52200.00000 0 -18387473.456 17323352.468 3858023.210 10 0 61029 53100.00000 0 -17812254.188 16944513.705 6993868.569 10 0 61029 54000.00000 0 -17041633.668 16222509.307 9994674.465 10 0 61029 54900.00000 0 -16133164.457 15146427.776 12802580.126 10 0 61029 55800.00000 0 -15146999.467 13718364.438 15363468.309 10 0 61029 56700.00000 0 -14143271.244 11953557.932 17627984.525 10 0 61029 57600.00000 0 -13179492.147 9879992.645 19552465.850 10 0 61029 58500.00000 0 -12308082.150 7537482.831 21099763.592 10 0 61029 59400.00000 0 -11574125.462 4976274.913 22239945.930 10 0 61029 60300.00000 0 -11013447.846 2255223.570 22950868.584 10 0 61029 61200.00000 0 -10651093.568 -560385.873 23218603.432 10 0 61029 62100.00000 0 -10500265.043 -3401281.908 23037717.150 10 0 61029 63000.00000 0 -10561769.767 -6196820.447 22411394.037 10 0 61029 63900.00000 0 -10823998.833 -8877662.562 21351399.418 10 0 61029 64800.00000 0 -11263439.955 -11378408.118 19877882.436 10 0 61029 65700.00000 0 -11845706.089 -13640078.004 18019019.559 10 0 61029 66600.00000 0 -12527039.443 -15612342.814 15810502.875 10 0 61029 67500.00000 0 -13256230.541 -17255405.228 13294880.134 10 0 61029 68400.00000 0 -13976874.128 -18541456.669 10520756.508 10 0 61029 69300.00000 0 -14629868.539 -19455645.604 7541871.162 10 0 61029 70200.00000 0 -15156053.864 -19996514.774 4416064.783 10 0 61029 71100.00000 0 -15498877.056 -20175886.607 1204157.135 10 0 61029 72000.00000 0 -15606969.755 -20018199.502 -2031243.588 10 0 61029 72900.00000 0 -15436527.223 -19559321.305 -5226975.636 10 0 61029 73800.00000 0 -14953384.411 -18844889.206 -8320577.157 10 0 61029 74700.00000 0 -14134697.608 -17928246.280 -11251531.505 10 0 61029 75600.00000 0 -12970156.812 -16868062.947 -13962477.452 10 0 61029 76500.00000 0 -11462674.195 -15725745.802 -16400357.895 10 0 61029 77400.00000 0 -9628516.928 -14562745.915 -18517481.873 10 0 61029 78300.00000 0 -7496876.941 -13437883.166 -20272476.833 10 0 61029 79200.00000 0 -5108894.882 -12404802.424 -21631110.734 10 0 61029 80100.00000 0 -2516179.447 -11509671.342 -22566966.765 10 0 61029 81000.00000 0 221114.907 -10789218.552 -23061957.093 10 0 61029 81900.00000 0 3036569.879 -10269195.732 -23106665.911 10 0 61029 82800.00000 0 5860047.709 -9963328.126 -22700515.998 10 0 61029 83700.00000 0 8620390.085 -9872796.468 -21851757.003 10 0 61029 84600.00000 0 11248157.699 -9986270.079 -20577277.524 10 0 61029 85500.00000 0 13678295.516 -10280487.013 -18902246.709 99